Tracking 23757 objects as of 24-Oct-2021
HD Live streaming from Space Station
objects crossing your sky now

CZ-2C DEB

Track CZ-2C DEB now!
10-day predictions


NORAD ID: 37768
Int'l Code: 2011-039D
Perigee: 690.7 km
Apogee: 905.0 km
Inclination: 98.2 °
Period: 100.7 minutes
Semi major axis: 7168 km
RCS: 0.0872 m2 (small)
Launch date: July 29, 2011
Source: People's Republic of China (PRC)
Launch site: Jiuquan Satellite Launch Center, China (JSC)

Note: This is SATELLITE DEBRIS
aabbcc
Your satellite tracking list
Your tracking list is empty




NASA's NSSDC Master Catalog

Two Line Element Set (TLE):
1 37768U 11039D   21297.54374685  .00000489  00000-0  18216-3 0  9990
2 37768  98.1878 287.7072 0149499 280.2427 194.8027 14.30305851533718
Source of the keplerian elements: AFSPC